Retour au catalogue

COSMOS 1464

ActifMilitairePO
NORAD 14084·PAYLOAD·🇷🇺 Russia

Lancé May 24, 1983 depuis Plesetsk Cosmodrome

Loading…

Prochains Passages (prochaines 24 heures)

TLE

FraisSource: Space-Track

Époque: Sep 14, 2026, 11:00 UTC

1 14084U 83048A   26257.45891897  .00000067  00000-0  53951-4 0  9993
2 14084  82.9465 139.2697 0030770 138.6430  34.1963 13.74699739172208

Suivez COSMOS 1464 en temps réel avec AllMySat

Download on the App Store